Theta_e
323 325 327 324 323 324 324 325 326 326 326 325 325 324 324 324 322 323 327 328 327 327 326 327 327 328 329 329 329 330 330 329 330 330 331 330 328 327 324 318 313 310 308 306 307 307 307 308 308 308 307 307 306 306 306 305 306 305 305 305 305 305 305 306 306 306 306 306 306 306 306 306 307 307 307 308 308 308 308 308 308 308 308 309 308
323 324 324 323 323 324 324 326 328 326 327 326 326 326 325 323 320 323 327 328 327 329 328 328 328 328 329 328 328 330 330 330 331 332 332 331 329 328 325 321 318 315 313 311 308 306 306 306 306 307 306 306 306 306 306 305 305 305 305 305 305 305 305 305 305 305 306 306 306 305 306 306 306 307 307 308 308 308 308 308 308 308 308 309 308
323 324 323 323 325 325 325 326 327 327 327 328 328 328 326 323 321 324 327 327 327 328 329 329 327 327 327 328 328 328 329 330 331 332 332 331 330 328 326 324 322 320 319 317 314 312 308 307 306 306 305 305 305 305 305 305 305 305 305 305 305 305 305 304 304 304 305 305 305 305 305 306 305 307 307 307 307 307 308 308 308 308 308 308 308
322 324 325 324 325 327 326 325 327 327 328 328 328 329 328 325 323 325 327 326 327 327 328 328 328 326 327 329 329 328 328 329 330 332 331 331 331 329 327 325 323 322 321 321 320 319 316 311 308 307 306 306 306 305 305 305 304 305 305 304 304 305 305 304 304 304 304 305 305 305 305 305 305 306 306 307 307 307 308 308 308 308 308 308 308
322 325 326 324 326 328 326 326 327 328 329 328 328 329 329 328 326 326 326 326 327 328 328 328 328 327 326 328 329 328 327 328 328 330 331 331 331 329 328 326 325 324 323 323 322 323 322 320 315 311 308 308 308 308 308 307 306 306 305 305 304 304 304 304 304 304 304 304 304 304 304 304 305 305 306 306 307 307 308 308 308 308 308 307 308
322 324 326 325 327 328 326 326 326 328 328 328 328 328 329 330 329 327 327 326 327 329 329 327 327 327 326 326 327 327 327 327 328 328 329 330 331 330 329 328 327 326 325 324 323 322 324 325 324 321 316 312 311 310 311 311 311 310 309 307 306 305 304 304 304 304 304 304 304 304 304 304 304 304 305 306 306 307 307 308 308 308 308 308 308
323 324 325 326 328 328 327 326 326 327 328 327 327 328 328 329 330 329 328 328 328 329 329 328 327 327 326 326 326 326 325 326 327 327 327 327 329 330 329 329 328 327 326 325 324 323 324 325 326 326 325 322 318 316 314 314 314 315 314 312 310 308 306 304 303 303 303 303 304 304 304 304 304 304 304 305 305 306 307 308 308 308 309 308 308
323 325 327 327 328 327 327 328 327 328 328 328 327 327 328 328 329 330 329 329 329 328 328 328 328 328 327 326 325 325 326 327 326 326 326 326 327 329 329 328 327 327 327 326 325 325 326 326 325 326 327 326 325 323 321 319 318 318 318 317 314 311 309 306 304 303 303 303 303 303 304 304 303 304 304 304 305 305 306 307 308 309 309 309 309
324 327 327 327 328 325 325 328 329 329 329 328 328 328 328 328 328 329 328 328 328 329 328 327 327 327 328 327 326 325 325 326 327 327 326 326 327 327 328 328 327 327 327 326 325 325 326 327 326 326 326 325 325 326 326 325 324 322 320 318 317 314 312 310 308 306 305 304 304 304 304 304 304 304 304 304 305 305 305 306 307 308 309 309 309
324 326 325 327 329 325 323 326 327 328 329 328 328 328 328 329 328 327 327 327 328 328 327 326 326 327 327 328 327 325 325 326 327 327 327 327 327 327 328 328 328 328 327 326 326 325 325 326 327 327 326 324 325 326 327 327 327 327 323 319 318 316 314 313 311 310 309 307 305 305 305 305 305 306 305 306 306 306 305 306 307 308 309 309 309
323 324 322 325 329 328 326 327 327 328 328 327 327 328 329 329 328 327 326 327 327 326 326 325 325 326 327 327 326 325 324 325 325 324 324 326 327 327 327 327 328 328 328 327 327 326 325 325 327 327 327 326 326 327 327 327 327 328 326 322 320 319 318 316 316 315 313 312 311 309 309 308 309 309 309 308 307 307 306 305 306 308 309 309 309
322 322 322 326 329 329 328 328 328 328 327 326 327 328 329 329 328 327 327 327 327 326 326 324 323 325 326 324 324 323 322 324 325 323 322 324 325 325 325 326 326 327 327 328 328 327 326 326 327 327 326 326 327 328 327 327 327 327 326 324 322 322 321 320 320 319 317 317 315 314 314 313 313 313 312 310 309 308 307 306 306 307 308 309 310
323 324 325 327 328 328 327 327 326 326 326 326 328 328 328 328 328 328 327 327 327 327 326 324 322 323 324 323 323 323 323 324 324 323 322 322 322 322 322 322 323 324 325 326 327 327 327 327 327 328 327 327 328 328 329 328 327 326 325 324 324 324 324 324 322 321 320 319 318 317 317 316 315 314 313 312 311 311 310 309 308 308 308 309 310
324 325 326 326 325 325 325 325 324 324 324 324 326 326 327 327 327 327 328 327 327 327 325 323 323 323 324 324 325 324 324 323 323 322 321 320 319 319 319 319 320 322 324 325 326 326 327 327 327 327 328 328 328 328 328 328 327 327 325 324 324 324 326 328 327 325 322 321 320 319 317 316 316 315 315 315 316 315 314 313 311 309 309 309 309
325 326 325 324 323 323 323 322 321 321 322 321 323 325 326 327 327 327 328 327 327 326 325 324 323 325 325 325 326 325 324 324 323 322 320 318 318 317 318 318 319 320 322 325 325 326 326 327 326 326 327 327 327 327 326 326 327 328 326 325 325 325 326 329 329 329 327 324 322 319 318 317 316 317 318 319 319 318 317 316 314 312 310 309 309
322 323 323 322 322 321 321 320 320 320 322 322 323 324 326 327 327 327 327 328 328 327 326 325 324 326 327 326 325 324 323 324 324 323 321 319 318 317 317 317 318 319 320 323 324 324 325 325 325 326 326 326 326 326 326 325 326 327 328 327 327 326 326 326 327 329 329 328 327 323 320 319 317 318 320 321 321 320 319 318 317 315 312 310 309
315 316 317 319 320 319 319 319 318 320 322 323 323 324 325 325 326 327 327 327 327 327 327 325 326 327 326 325 325 324 324 324 323 323 321 320 319 319 318 317 317 319 320 321 321 322 323 323 323 323 323 324 325 325 325 325 325 327 328 328 328 328 327 327 327 327 328 328 329 328 325 323 319 319 321 323 323 323 323 322 320 318 316 314 312
315 316 317 319 320 320 319 318 318 319 320 321 322 322 322 324 325 326 326 326 326 326 326 326 325 326 325 325 324 324 324 323 322 321 321 320 320 320 319 318 317 317 318 319 319 320 321 321 321 321 321 322 323 323 323 323 324 326 326 326 327 327 327 327 327 327 327 327 328 329 329 327 324 322 322 323 325 325 325 324 323 322 320 318 317
317 319 320 320 320 319 318 317 318 320 320 320 320 320 321 322 324 324 324 325 325 325 325 325 324 324 324 323 322 322 323 322 320 319 319 319 320 320 320 320 320 320 319 319 319 319 320 320 320 321 321 320 320 321 321 322 325 326 326 326 325 326 327 328 327 327 327 326 327 327 328 328 328 326 325 324 325 326 326 325 326 325 323 322 321
317 319 319 319 319 319 317 317 319 321 320 319 319 319 321 322 322 322 322 322 322 322 322 323 323 323 323 323 322 322 321 319 319 318 319 319 320 319 318 318 318 318 319 320 320 320 320 319 320 321 322 320 320 320 320 322 324 325 325 326 326 327 328 327 328 328 328 328 327 327 327 327 328 327 327 325 325 326 326 326 327 326 326 325 324
316 317 318 319 318 317 317 317 319 320 319 319 318 317 320 322 322 321 321 320 320 320 320 321 322 323 323 323 321 320 319 318 318 319 320 318 315 312 309 309 311 312 313 315 317 318 318 317 318 319 320 320 320 320 320 321 323 324 324 325 326 327 327 327 327 328 328 328 328 327 327 328 327 326 326 326 326 326 327 327 327 327 327 327 327
314 316 317 317 317 315 315 315 317 318 317 318 317 316 318 320 321 320 320 320 319 319 321 321 321 321 321 320 319 318 317 318 319 320 319 314 309 306 305 306 309 313 314 313 314 315 315 316 317 318 318 320 320 319 319 318 319 321 321 322 323 325 325 326 327 327 327 327 328 327 327 327 327 327 327 327 327 327 327 327 328 328 328 328 328
313 315 315 315 314 313 313 313 314 315 314 315 316 317 318 318 319 319 319 319 317 318 320 320 319 319 318 317 315 313 312 314 316 318 314 309 306 305 305 306 307 313 317 316 316 317 317 317 318 318 319 320 320 320 319 318 316 317 318 320 322 324 325 325 326 326 326 325 325 324 325 326 328 328 328 327 327 327 327 327 328 328 328 329 329
310 312 312 311 310 309 309 308 308 308 308 308 309 311 312 313 315 317 317 315 315 317 318 318 317 315 312 309 308 307 307 308 310 310 308 305 305 305 305 305 305 313 317 317 317 317 317 318 319 319 319 320 321 321 321 320 318 317 317 320 322 324 325 324 323 323 323 323 322 323 326 327 327 328 328 327 326 327 328 328 327 327 328 328 329
307 308 308 308 306 306 306 306 306 305 305 305 305 305 306 306 308 309 310 309 310 311 311 310 309 307 305 304 304 305 305 305 305 305 304 304 304 303 303 303 304 310 316 316 316 316 316 317 318 318 318 319 320 321 322 322 321 320 320 320 321 322 323 322 323 323 322 324 324 325 327 326 326 327 327 326 326 327 328 328 327 327 327 328 328
306 306 306 306 305 306 306 306 306 306 305 306 305 305 305 305 305 305 305 306 306 306 305 305 305 305 305 305 305 304 304 304 304 303 303 302 303 302 302 302 302 306 313 316 315 315 315 315 315 315 315 316 317 318 320 321 322 322 322 322 322 322 322 323 323 323 323 324 324 325 324 324 324 324 324 324 324 324 325 325 325 325 326 326 327
305 306 306 306 306 306 306 306 306 306 306 306 306 306 306 306 305 305 305 305 305 305 305 305 305 305 305 304 304 304 303 303 303 303 303 302 303 302 302 302 301 303 308 312 313 313 311 310 311 312 312 312 313 314 315 317 319 321 321 322 322 322 323 323 323 323 323 323 323 322 322 322 323 323 323 323 323 322 322 322 322 322 323 324 324
306 306 306 306 306 306 306 306 306 306 306 306 306 306 306 305 305 305 305 304 305 305 304 304 304 304 304 303 303 303 303 304 304 304 304 303 304 303 303 304 303 303 304 306 307 307 307 306 306 307 307 308 309 310 311 311 314 316 318 319 320 320 321 322 322 322 323 323 323 322 322 323 323 323 322 322 321 320 320 320 320 320 320 321 322
307 307 307 307 307 307 306 306 306 306 306 306 306 306 305 305 305 305 305 305 305 305 304 304 304 304 304 304 304 304 305 305 305 305 305 305 306 306 306 307 307 306 306 306 305 305 305 305 305 305 305 305 305 306 306 307 309 310 311 314 318 320 321 321 321 322 322 322 322 322 322 322 322 321 321 320 319 318 317 317 317 318 317 318 318
307 308 308 309 309 308 308 308 307 307 307 307 306 306 306 306 306 306 306 306 306 306 306 305 305 305 306 306 306 306 307 308 308 307 306 307 308 308 308 308 308 308 307 307 307 306 306 306 305 305 305 304 304 304 304 304 305 306 307 308 311 314 316 317 318 319 319 320 320 320 320 320 320 320 320 319 318 316 315 315 316 316 316 316 316
307 308 309 309 310 310 310 310 310 309 309 309 308 308 307 307 307 307 307 308 307 308 307 307 307 307 307 307 307 307 308 309 309 309 308 308 308 309 309 309 308 308 307 307 307 307 306 306 306 305 305 304 304 304 304 303 304 304 305 305 305 306 307 308 310 311 312 313 314 314 315 315 316 317 317 317 317 316 315 315 316 317 316 316 316
308 308 309 309 309 309 310 310 310 310 310 309 309 309 308 308 308 308 308 308 308 308 308 308 308 307 307 308 307 307 308 308 309 309 310 310 310 310 309 309 309 308 307 307 308 307 307 306 306 305 305 304 303 304 304 303 303 303 304 304 304 304 304 305 305 306 306 307 308 309 309 309 310 312 313 314 315 316 316 316 316 316 315 315 316
312 311 311 311 310 310 311 311 312 311 312 311 311 310 310 309 309 309 309 309 308 308 308 308 308 308 308 308 308 307 307 308 308 309 310 311 311 310 310 310 309 308 308 307 308 309 308 307 306 306 305 305 304 304 304 304 303 304 303 304 304 304 305 305 305 306 306 307 307 307 308 308 308 309 309 310 311 312 313 313 314 313 313 314 315
315 314 314 314 314 314 314 315 315 315 315 315 314 313 313 313 313 313 313 313 312 311 310 309 308 308 308 307 308 307 307 307 308 308 309 310 311 310 310 310 309 309 308 308 308 309 310 309 307 306 306 306 305 304 305 304 304 303 303 303 303 304 305 306 306 306 307 307 308 308 308 309 309 309 309 309 310 310 310 310 311 310 311 312 313
316 316 316 316 316 316 316 316 316 316 316 316 315 315 315 315 315 316 316 316 316 315 314 313 312 311 310 310 309 308 307 307 307 308 308 308 310 310 310 309 309 309 309 310 309 309 309 309 308 306 306 305 304 304 304 303 303 302 302 302 302 303 304 305 306 306 307 307 307 308 308 309 309 309 309 309 309 310 310 310 310 310 310 310 311
316 316 316 316 316 317 316 316 316 316 316 316 316 316 316 316 316 316 317 317 317 317 317 316 316 315 315 314 313 312 309 308 307 308 308 308 309 309 309 309 309 310 310 311 311 309 309 309 307 306 305 304 302 302 302 302 302 302 302 302 302 302 302 303 304 305 306 306 307 307 307 308 308 308 308 308 308 308 310 311 311 311 311 311 311
316 316 316 316 316 316 317 317 317 316 316 316 316 316 316 316 316 316 316 316 317 317 317 317 317 317 317 317 316 315 314 311 309 308 309 308 308 309 309 310 310 311 311 311 311 310 309 308 307 305 304 302 301 301 301 301 302 302 302 302 301 301 301 301 302 303 304 304 305 305 306 306 306 307 307 306 306 307 308 309 310 311 311 311 312
317 316 316 316 316 316 316 317 317 316 316 316 316 316 316 316 316 316 316 316 317 317 317 317 317 317 317 317 317 316 316 314 311 310 310 310 309 309 309 310 310 311 311 311 311 310 309 308 306 304 303 302 301 301 300 300 300 301 302 302 301 301 301 301 301 301 301 301 301 302 302 303 303 303 303 303 303 306 308 308 309 310 310 311 312
317 316 316 316 316 315 316 317 317 317 316 316 316 316 317 317 316 315 315 315 316 317 317 317 317 317 317 317 317 316 316 316 314 313 312 311 310 309 309 309 310 310 310 310 310 310 309 307 305 302 301 300 300 300 299 299 298 299 300 301 301 302 301 301 300 300 300 300 300 300 300 301 301 301 301 301 303 305 308 309 308 309 310 310 311
317 316 316 316 316 315 315 316 316 317 316 316 317 317 317 317 315 314 313 314 316 316 316 316 316 317 317 317 317 317 316 316 315 314 313 313 312 310 309 309 309 309 310 310 310 309 308 306 304 302 301 300 300 299 299 299 300 300 299 299 299 300 300 300 299 299 299 299 300 300 300 300 300 300 300 302 302 304 307 308 308 308 308 309 311
315 314 314 315 316 315 315 315 316 316 316 317 317 317 317 317 315 313 312 313 314 315 315 315 315 316 317 317 317 316 316 316 315 314 313 313 312 311 310 310 309 309 310 310 309 308 306 305 303 302 301 301 300 300 300 300 299 299 298 297 297 298 299 300 299 298 298 299 299 299 299 299 300 300 299 300 301 302 304 306 307 308 308 308 310
314 314 314 315 315 314 315 316 316 317 317 317 318 317 317 316 315 314 314 314 315 316 316 316 316 316 317 317 317 317 316 315 314 314 313 312 311 310 310 310 310 310 310 310 309 308 306 304 303 302 302 301 301 300 299 299 298 297 297 297 297 297 297 299 299 299 298 298 298 299 299 298 298 299 299 299 300 300 301 302 303 305 306 307 308
315 315 316 315 315 315 315 316 317 317 317 318 317 317 316 316 315 315 315 315 315 316 316 316 316 316 317 317 317 317 316 315 314 313 312 311 310 310 309 309 309 310 310 309 307 306 306 305 304 303 302 302 301 300 299 298 298 297 297 296 296 296 296 297 298 298 298 297 297 298 299 298 298 298 298 299 299 299 299 299 300 300 302 304 305
315 315 316 316 316 316 316 316 316 316 316 316 315 315 314 315 315 315 315 315 315 316 316 317 317 317 317 317 318 317 316 315 313 312 310 310 309 309 309 309 308 309 309 308 307 305 305 305 304 303 302 302 302 300 299 298 298 297 297 296 295 295 295 295 296 296 297 297 296 297 298 298 297 297 298 298 298 298 298 298 298 299 299 300 301
315 315 315 315 315 315 316 316 315 315 315 315 315 315 315 315 315 315 315 315 315 316 316 317 318 318 318 318 318 317 315 314 313 311 310 309 309 310 309 308 308 308 308 307 306 305 305 305 304 303 302 301 301 300 299 298 298 297 296 296 295 295 295 295 295 296 296 296 295 296 297 298 297 297 297 298 298 297 297 297 298 298 299 299 299
314 314 314 315 315 315 316 315 314 314 314 313 313 313 313 312 312 311 310 309 309 309 309 311 314 316 318 318 318 317 315 312 311 311 310 309 309 310 308 307 307 307 307 307 306 305 305 304 304 302 301 301 300 300 299 298 298 297 296 296 295 295 295 295 294 295 295 295 295 295 296 298 297 296 297 297 297 297 297 297 298 298 298 298 299
314 314 315 315 315 315 315 314 313 311 309 307 306 306 306 306 305 305 304 303 302 303 304 307 310 313 316 317 317 316 314 312 311 310 309 308 309 309 307 306 306 305 306 305 305 305 305 304 303 302 301 300 300 299 299 299 298 297 296 296 295 295 294 294 295 295 295 295 295 294 295 297 297 296 296 297 297 297 297 297 297 298 298 299 299
314 314 314 314 314 313 312 310 307 304 303 302 303 303 303 304 303 303 303 302 302 302 303 305 308 311 314 316 315 314 313 312 311 309 307 308 309 308 306 305 305 305 305 305 305 305 304 303 302 301 300 300 300 299 299 298 298 297 296 295 294 294 294 294 294 295 295 295 295 294 294 295 295 295 295 296 296 296 296 296 297 298 298 299 300
313 313 313 313 312 310 307 304 303 302 303 303 303 303 304 304 304 304 304 304 304 303 303 303 305 308 312 314 314 313 313 312 310 308 307 309 309 307 305 304 304 305 305 305 304 303 302 302 301 301 300 300 299 299 299 298 297 296 295 294 294 294 294 294 294 294 295 295 295 294 294 294 294 294 295 295 295 295 295 295 296 296 298 298 299
310 310 309 309 307 305 303 303 303 303 303 304 304 305 305 305 306 306 306 306 306 305 304 305 306 308 310 312 312 312 311 310 308 307 308 308 307 305 304 304 305 305 304 303 303 302 301 301 301 300 300 299 299 298 298 297 295 294 294 294 294 294 294 293 293 293 293 294 294 294 294 293 294 293 294 294 294 294 295 295 295 298 299 299 299
305 305 305 304 304 304 304 304 304 304 305 306 307 307 307 308 308 308 308 308 308 307 305 306 308 309 309 310 310 310 309 308 307 307 307 307 305 305 304 305 305 305 303 302 302 301 301 301 300 300 299 298 297 296 295 295 294 294 294 294 293 293 293 293 292 292 293 293 293 293 293 293 293 293 293 293 294 294 294 294 295 298 300 299 298
Wind_Speed
9 9 10 10 10 10 10 9 9 9 9 9 9 9 9 9 12 15 12 11 12 13 16 17 16 14 11 9 8 9 8 8 8 7 6 5 5 5 6 6 6 6 6 5 4 4 3 4 5 6 6 6 6 6 7 6 6 6 6 5 4 4 4 4 3 2 2 2 2 3 3 4 4 5 6 7 7 8 8 8 8 8 9 9 10
10 10 10 9 10 10 9 9 9 10 9 9 9 9 9 10 13 15 12 11 11 12 14 14 13 12 11 9 8 9 8 7 9 10 9 7 6 6 6 7 6 5 5 4 4 4 3 2 3 4 6 7 8 8 8 8 7 7 7 6 6 5 5 5 5 4 3 2 2 2 2 2 3 3 4 5 6 6 7 7 7 7 8 8 8
11 11 10 9 10 9 8 9 10 10 10 9 10 9 10 11 14 15 13 11 12 13 13 12 11 10 9 8 8 8 7 6 7 8 10 10 7 6 7 7 6 5 3 2 2 3 3 2 1 2 3 5 7 8 8 9 8 7 7 7 7 6 6 5 4 4 4 3 3 2 2 2 2 2 2 3 4 5 5 6 6 6 6 6 6
12 13 12 11 11 9 10 11 11 11 11 11 11 11 11 13 15 14 13 12 11 12 11 10 10 9 8 8 8 7 6 6 5 6 8 10 10 8 7 7 7 6 4 3 3 2 2 2 1 0 2 3 4 5 6 7 8 7 7 6 6 6 7 6 6 5 5 4 4 3 3 2 2 1 1 2 2 3 4 4 5 5 5 5 5
13 14 14 13 12 11 10 11 13 13 13 13 12 12 11 13 15 15 15 14 11 10 10 10 10 10 9 9 9 8 8 7 5 5 7 9 11 11 9 6 6 6 6 5 4 3 2 2 1 0 2 2 2 3 4 5 6 6 6 5 5 6 7 8 8 7 6 6 5 5 4 3 2 2 2 2 1 1 2 3 3 4 4 4 4
13 15 15 13 12 11 10 12 14 14 13 13 12 12 12 12 14 15 15 15 13 11 11 12 12 12 12 11 11 10 11 10 8 7 6 8 10 10 10 7 5 5 5 5 3 2 2 2 2 1 1 2 3 3 3 4 4 5 5 4 4 5 7 8 9 9 8 7 7 6 5 4 4 4 3 3 3 2 2 1 2 3 3 4 4
14 16 16 13 11 11 11 12 13 12 12 12 11 11 12 12 13 14 14 13 13 12 13 14 13 13 13 13 13 12 12 12 11 9 8 9 8 8 9 7 6 6 5 4 2 1 1 1 1 1 1 1 2 3 3 4 4 4 5 4 4 5 6 7 9 9 9 9 8 7 6 6 5 5 5 5 5 4 3 2 1 1 2 3 3
16 16 15 13 11 11 12 12 12 11 11 11 11 11 11 12 11 12 12 12 12 12 13 13 13 12 13 14 14 13 12 12 12 12 11 9 8 7 7 7 7 8 7 6 4 3 2 2 2 2 2 2 2 3 4 5 5 5 5 4 4 5 6 7 8 9 9 9 9 9 8 7 6 6 6 6 6 5 5 4 2 2 1 2 3
15 15 13 12 12 12 13 12 11 11 12 12 11 11 12 11 11 11 11 11 12 12 12 11 11 12 13 14 14 15 15 14 12 12 12 11 9 9 8 8 10 10 10 9 7 6 5 4 4 3 4 4 4 4 5 6 6 6 6 4 4 5 5 6 7 7 8 9 9 9 8 7 7 7 7 7 7 7 6 5 4 3 1 0 1
13 14 13 12 13 12 12 12 11 11 11 11 11 12 12 12 11 11 10 11 12 12 11 11 11 12 13 13 13 14 16 17 16 13 12 12 11 10 10 11 12 12 12 12 11 11 9 8 7 6 6 6 6 6 6 7 7 8 8 6 5 6 5 5 6 6 7 7 8 8 8 7 7 8 8 8 8 7 6 5 4 4 3 2 1
12 13 13 14 15 13 12 13 12 11 9 9 10 11 11 12 12 12 11 11 12 12 12 12 12 12 12 11 11 12 13 13 14 12 8 10 12 12 12 12 13 13 13 14 14 14 13 12 11 10 9 8 8 8 8 8 7 8 9 8 6 6 5 4 4 5 5 6 6 6 7 7 7 7 7 7 7 7 6 5 5 5 4 3 2
10 12 13 14 13 11 10 10 10 9 8 9 11 12 12 13 13 13 12 12 13 14 14 13 13 13 13 12 11 12 11 10 10 10 7 6 9 10 10 11 12 13 14 15 15 16 16 15 15 13 12 11 11 10 9 9 8 8 10 10 9 7 6 4 4 5 5 5 5 5 6 6 6 6 6 6 6 5 5 5 5 5 5 4 4
10 12 12 12 10 8 7 8 8 8 9 10 11 13 13 13 14 14 13 13 14 15 15 14 12 13 12 10 8 7 8 9 9 9 7 6 6 7 9 11 12 13 14 15 17 18 18 17 18 18 17 16 15 13 11 10 10 10 10 10 10 9 9 8 7 6 6 7 6 5 6 6 5 5 5 5 4 4 4 4 4 4 4 5 4
11 11 12 10 8 7 7 7 7 7 8 9 10 11 12 12 13 13 14 14 14 14 14 13 12 12 10 8 6 5 7 8 8 6 5 4 4 5 8 10 13 13 13 13 15 16 17 19 20 20 20 19 16 14 14 13 12 12 11 11 11 10 11 13 12 9 8 7 7 6 6 6 6 5 5 4 3 3 3 3 3 3 4 4 5
10 10 10 8 6 5 6 5 5 5 6 7 9 10 11 11 11 11 12 13 13 13 13 13 13 12 10 7 6 5 6 5 4 3 2 2 3 4 5 7 10 12 12 12 13 13 15 17 20 20 20 18 14 13 16 16 14 12 12 12 11 10 11 14 16 15 12 9 8 7 6 6 6 6 6 5 4 3 2 2 2 2 3 3 4
8 9 8 6 5 5 5 5 5 5 5 6 7 8 9 9 9 9 9 10 11 11 11 12 13 11 9 7 6 5 4 2 2 2 2 2 3 4 5 5 5 8 9 10 12 13 13 14 15 17 16 15 14 15 16 17 16 15 15 15 15 14 13 14 16 17 17 15 13 10 7 6 6 7 7 6 5 4 3 2 2 2 3 3 4
8 7 6 6 6 5 4 4 4 5 5 5 5 5 6 8 8 8 9 9 9 10 11 11 12 12 10 6 3 2 1 1 2 2 2 3 4 4 4 4 3 3 5 7 9 12 13 13 14 14 13 13 16 15 15 15 16 18 20 21 19 18 17 17 17 18 18 18 18 16 13 10 8 9 8 8 6 5 4 3 3 4 4 4 4
7 6 6 6 6 5 3 2 3 4 4 4 4 4 4 6 7 8 8 8 8 9 10 10 11 12 9 4 3 2 2 3 3 3 4 5 5 6 6 4 3 2 3 5 6 7 10 11 12 11 10 11 13 14 13 13 14 17 20 21 20 19 19 19 19 20 20 21 21 19 18 16 13 12 11 10 9 7 6 5 5 5 5 5 5
7 7 7 8 6 5 3 1 2 3 3 4 4 3 3 3 4 5 5 5 5 5 6 6 7 8 5 3 5 5 6 7 7 7 6 5 5 7 6 5 4 4 4 4 4 5 7 9 10 10 9 9 11 13 14 14 14 15 17 19 20 21 22 22 21 21 22 24 24 22 21 19 17 17 15 12 11 11 9 8 7 7 7 7 7
8 6 6 7 6 4 3 2 3 3 3 4 3 2 2 2 2 2 1 1 2 3 3 3 4 4 3 4 5 6 7 8 7 6 5 4 5 6 5 4 5 6 6 6 5 6 6 8 9 10 10 10 10 12 14 15 14 13 14 16 18 21 22 23 24 23 24 25 26 26 24 22 20 19 17 14 13 13 12 11 10 10 10 9 9
8 7 6 5 4 2 2 3 5 4 4 3 3 3 4 4 4 5 5 3 1 1 1 1 2 2 1 3 3 3 4 4 4 3 3 5 7 9 9 7 6 5 6 6 6 6 7 8 9 9 9 9 9 10 13 14 13 12 14 13 15 19 18 19 22 24 26 27 26 26 25 25 24 20 18 17 17 16 16 15 15 15 14 12 12
8 8 7 5 3 1 2 3 4 4 2 1 2 3 4 5 5 6 7 6 5 4 4 3 3 2 2 2 1 2 3 4 4 3 4 8 10 11 11 10 10 8 6 5 4 4 5 6 6 5 6 6 6 8 10 11 10 11 13 12 13 16 16 17 18 19 22 24 24 23 21 21 24 23 21 21 20 19 19 18 18 19 18 16 15
9 9 7 5 3 2 3 3 2 2 2 1 1 2 2 3 3 3 3 4 6 6 6 6 6 5 4 2 1 2 2 3 3 4 7 10 10 10 10 9 9 7 6 6 6 4 2 1 1 2 2 3 4 7 8 8 8 8 10 11 11 11 13 15 14 12 15 16 18 19 15 15 20 22 21 20 20 20 20 21 20 20 20 19 18
9 9 8 6 6 6 6 7 7 7 6 6 6 4 4 3 3 3 3 3 4 4 4 4 3 2 1 0 1 2 2 3 4 6 7 8 9 9 9 8 6 5 5 5 6 6 5 5 5 5 4 2 2 3 5 6 7 7 8 8 9 7 7 9 10 10 12 12 13 13 12 12 15 17 17 18 21 21 21 22 22 22 22 21 20
10 10 10 9 9 10 10 11 12 12 12 12 12 11 10 8 7 6 5 5 4 4 3 3 2 1 1 1 1 2 3 3 4 5 6 7 7 8 8 8 5 4 4 4 4 5 6 6 6 6 6 4 3 3 3 4 4 6 7 8 8 7 6 8 8 9 10 11 11 10 11 12 11 12 13 14 17 19 20 21 22 22 22 21 21
11 11 11 11 11 10 11 11 12 12 12 12 13 13 12 11 10 8 7 6 5 4 4 3 2 2 2 2 2 2 3 3 4 5 5 6 7 7 7 6 5 3 2 2 2 2 3 4 5 5 6 6 6 6 5 4 4 5 7 8 7 7 8 9 8 7 9 9 9 9 11 12 10 8 9 9 10 12 13 15 15 16 17 15 16
13 13 12 12 12 11 11 12 12 11 11 11 11 11 10 10 9 7 7 7 6 5 4 4 4 3 3 3 3 4 4 4 5 5 6 6 7 8 8 7 6 4 3 2 1 1 3 5 4 5 7 7 7 8 7 7 6 5 7 8 6 6 7 8 8 7 9 9 9 9 11 12 10 7 7 8 8 8 8 9 10 10 12 12 12
15 15 15 14 14 14 13 13 13 12 11 10 10 10 9 8 8 8 8 8 7 6 6 6 6 6 5 5 5 5 5 6 6 7 8 9 9 9 9 9 9 8 6 5 3 4 6 7 6 7 9 10 9 9 9 9 8 7 8 7 6 7 7 8 9 9 10 11 11 11 11 11 10 9 8 8 9 9 9 11 11 11 12 13 12
16 16 16 16 15 15 15 14 14 13 12 11 10 11 10 9 9 9 9 9 9 8 8 8 7 7 6 6 6 6 7 8 9 10 10 11 12 11 11 12 12 12 11 11 9 8 10 11 10 11 11 12 12 11 11 11 11 11 10 10 10 11 11 11 12 12 12 13 13 12 12 12 12 12 11 12 12 12 13 15 15 14 13 14 14
15 15 15 16 15 15 15 15 14 13 12 12 11 11 11 10 10 10 9 9 9 9 9 8 7 7 6 6 6 6 8 9 10 10 10 10 11 11 12 13 13 14 14 14 13 12 12 13 14 15 14 14 14 13 12 12 12 12 12 13 13 14 15 15 15 15 15 15 15 14 14 14 15 15 15 15 15 15 16 17 17 16 15 14 14
15 14 14 14 14 14 14 14 14 13 13 12 11 11 10 10 10 9 8 8 7 7 7 6 6 5 5 5 5 5 6 7 8 8 8 9 10 10 11 12 13 14 14 15 15 15 15 14 15 16 16 16 16 14 13 12 11 11 11 11 11 12 13 13 14 14 14 14 14 15 15 15 15 15 16 16 16 17 17 17 17 16 16 15 14
14 14 13 12 12 12 12 12 11 12 12 11 10 9 9 8 8 8 7 6 5 5 4 3 3 2 2 2 3 3 4 4 5 6 6 6 7 8 9 10 11 12 13 15 15 15 15 16 16 16 16 16 16 15 13 12 11 9 9 9 9 8 8 8 8 9 9 9 10 10 11 12 13 14 15 16 17 18 18 19 19 18 17 16 16
13 13 11 10 10 10 10 9 9 9 9 10 10 9 8 8 7 7 6 6 5 4 3 1 0 0 1 1 1 1 1 1 2 3 3 4 4 5 6 7 9 10 11 13 15 15 14 15 16 16 16 16 15 15 14 13 12 11 10 10 8 7 6 6 5 4 5 6 6 7 7 7 8 9 10 11 13 15 16 18 20 20 20 19 18
12 11 10 9 9 9 8 8 8 8 8 8 8 8 7 7 6 6 6 6 5 4 4 3 2 2 2 3 4 4 3 4 4 3 3 4 3 3 4 6 7 9 11 12 14 15 15 15 16 16 17 16 16 16 15 15 15 14 13 12 10 8 7 6 6 4 4 5 6 6 6 7 7 8 9 10 10 11 13 15 17 19 20 20 19
15 13 11 9 8 8 7 7 7 7 7 6 6 5 4 4 5 6 6 6 6 5 4 3 2 2 2 4 5 5 5 6 6 5 5 5 5 4 4 6 7 8 10 12 14 16 17 16 17 18 18 18 18 17 17 16 16 16 15 14 13 12 10 9 8 6 5 5 6 6 7 8 8 9 10 11 12 12 12 13 14 15 17 18 19
21 17 14 12 10 8 8 7 6 5 4 3 3 3 4 5 5 4 4 4 5 4 4 3 2 1 2 3 5 6 7 7 7 7 7 7 7 6 6 6 7 8 10 12 13 15 17 18 18 19 19 19 19 18 18 17 16 16 16 16 15 14 13 12 12 11 9 8 8 8 9 9 10 11 12 13 14 15 14 13 13 14 15 16 17
27 20 14 15 16 13 10 9 7 5 6 6 7 8 8 7 7 7 6 6 5 5 4 3 3 3 3 3 4 6 7 8 8 9 9 9 8 8 8 8 8 9 10 12 13 14 16 18 18 18 19 19 18 18 19 18 18 17 17 16 17 17 16 15 14 15 14 14 13 13 13 13 13 14 15 16 16 16 16 15 14 14 14 15 16
31 25 18 19 22 20 15 12 10 9 9 10 11 11 11 10 10 11 11 10 9 8 8 7 7 6 6 6 7 8 8 8 8 9 9 10 10 10 10 10 10 10 11 12 13 14 15 17 17 18 18 18 19 19 19 20 21 21 20 19 18 18 19 18 17 17 18 18 19 19 18 18 18 18 19 19 18 17 16 16 16 14 14 15 16
32 26 20 21 24 21 17 14 13 13 13 13 13 13 13 13 14 16 16 14 12 12 12 12 12 10 9 9 10 11 11 10 10 10 10 10 10 11 11 11 11 11 13 14 14 15 15 16 16 17 18 18 19 19 19 20 20 20 22 23 22 21 21 22 22 21 21 21 21 21 22 22 22 22 22 20 19 18 18 17 17 16 14 14 15
29 24 20 22 24 21 17 15 15 16 15 15 15 15 15 16 17 19 18 16 15 15 15 16 15 15 13 13 13 14 14 14 13 12 12 11 11 12 11 11 11 12 14 15 16 15 15 15 16 17 17 18 19 19 19 20 20 20 22 25 26 26 25 25 26 25 25 25 24 23 23 24 24 24 23 22 21 20 20 20 20 19 17 15 14
25 24 21 23 25 23 20 19 18 16 14 15 16 16 16 17 19 20 18 17 17 18 19 19 18 17 16 16 16 17 18 17 16 15 14 13 13 13 13 12 12 13 15 17 17 16 16 16 16 17 18 18 19 20 20 21 23 24 25 27 27 28 28 28 27 27 26 27 27 26 25 25 26 25 25 24 24 23 23 24 24 23 21 19 16
26 25 22 23 25 23 20 20 19 17 16 17 18 18 19 21 22 21 19 19 21 21 20 20 19 19 19 18 18 20 21 21 19 18 17 16 15 15 15 14 13 14 17 18 18 18 18 17 18 18 19 19 19 21 22 23 24 25 27 28 29 30 31 30 29 28 28 28 30 29 27 26 27 27 26 26 26 26 26 28 28 27 26 24 22
25 24 21 21 22 20 19 18 17 17 18 19 20 21 21 21 21 20 20 21 22 21 21 21 21 20 20 20 20 21 23 24 23 21 20 18 17 17 16 15 15 15 17 19 19 19 19 19 20 20 21 22 21 22 24 25 26 27 29 30 31 32 33 34 34 32 30 32 34 34 31 29 29 29 27 27 26 26 27 29 30 30 30 29 28
22 21 19 19 19 18 19 18 16 17 18 19 20 20 20 19 20 20 21 21 21 21 22 22 22 22 21 20 21 22 25 26 25 23 21 18 17 18 18 17 16 16 18 20 20 20 20 21 21 21 22 24 25 25 27 28 29 31 32 33 34 35 36 37 38 37 34 34 37 38 35 32 31 31 30 27 27 26 26 27 28 29 30 31 31
18 18 16 16 15 14 16 17 17 17 17 17 18 18 19 19 21 22 22 23 23 24 23 23 22 22 21 20 20 21 24 26 25 24 24 22 19 19 19 17 17 18 20 21 22 22 23 23 23 23 24 25 26 27 29 31 32 34 36 36 37 38 39 39 40 40 38 38 40 40 38 34 33 35 33 29 28 28 27 27 26 27 28 28 29
15 15 15 13 11 11 12 15 15 15 15 15 16 17 18 19 21 22 23 23 24 25 25 23 22 21 20 18 18 20 22 24 24 24 25 22 18 18 18 18 18 20 21 22 24 25 25 25 25 24 25 27 28 28 30 32 33 35 37 38 40 41 42 43 43 42 40 40 40 40 39 36 34 36 36 32 30 29 27 25 24 24 25 25 26
13 13 12 11 11 12 13 13 13 13 13 14 14 14 15 16 18 19 19 19 19 20 21 20 19 19 17 15 16 19 20 22 23 23 24 21 17 16 18 19 19 20 21 23 25 26 26 26 25 25 26 28 29 30 31 33 34 35 36 39 41 42 43 44 43 41 38 37 36 36 39 37 35 36 35 31 28 27 23 21 21 21 20 21 22
13 13 13 12 12 12 12 11 11 11 11 11 11 11 12 13 13 14 14 13 14 14 15 16 16 16 15 13 14 17 19 21 23 23 24 22 18 17 19 19 19 21 23 24 26 26 26 26 26 26 27 28 30 31 32 33 35 37 38 40 41 41 42 42 41 39 37 36 34 34 36 35 32 30 29 26 25 25 23 20 18 18 18 17 17
13 13 12 12 12 11 10 8 8 8 9 10 11 12 12 12 12 13 13 13 13 13 13 13 13 13 12 12 14 16 18 20 21 23 23 22 20 19 19 19 20 22 24 26 26 26 26 26 27 28 28 29 31 32 33 34 36 38 40 40 39 38 38 38 38 38 36 35 33 31 31 30 27 26 27 26 26 26 25 21 18 18 18 16 14
13 13 12 12 11 9 7 7 7 9 10 12 13 14 15 15 15 15 15 15 15 15 14 13 13 12 11 11 13 14 16 18 21 22 22 22 21 20 20 22 23 24 25 26 25 25 26 28 28 29 29 30 31 32 33 35 36 36 37 37 36 34 34 34 35 36 36 34 30 28 28 29 27 26 27 28 28 26 23 19 14 13 14 14 13
13 12 11 11 9 8 7 7 9 10 11 13 14 16 17 17 17 17 17 17 17 16 15 13 12 11 11 12 13 14 16 18 19 19 20 20 20 21 23 24 24 25 25 25 26 27 28 29 30 30 31 31 33 34 34 34 34 34 34 34 33 31 31 32 31 31 32 31 27 26 28 29 28 26 24 26 29 28 23 16 12 11 13 14 16
Wind_Direction
219 224 224 212 200 206 215 210 204 203 194 179 170 165 170 176 173 168 158 155 156 157 161 165 174 180 184 189 189 195 204 204 191 174 161 157 149 133 118 108 102 97 90 91 100 117 154 188 195 205 223 237 239 248 261 264 265 272 280 279 272 267 263 266 266 277 300 341 12 31 48 61 66 73 76 75 77 76 76 74 71 68 61 54 50
229 223 216 211 201 201 217 217 209 206 192 176 171 166 170 176 175 174 172 171 169 169 169 170 176 180 184 189 189 191 197 199 199 189 172 167 163 143 133 123 113 106 95 89 94 97 98 136 190 212 229 240 244 247 256 263 263 260 267 273 274 270 265 262 261 266 277 297 331 349 6 29 44 57 66 67 69 70 70 69 68 67 65 61 55
233 229 218 216 215 208 219 217 210 207 193 181 178 173 174 178 179 181 184 181 178 177 177 182 190 191 192 200 204 200 197 194 199 198 180 170 165 152 144 136 125 116 104 92 84 90 94 99 132 231 244 252 251 250 252 259 262 260 259 262 263 260 256 255 254 257 261 268 284 300 319 341 7 32 49 54 61 62 64 65 62 61 63 63 61
232 232 227 226 227 217 216 214 214 211 199 192 189 183 181 185 188 191 194 193 189 186 186 195 205 207 205 212 219 219 218 207 194 197 184 174 172 160 152 147 138 133 129 121 107 100 108 116 98 343 270 274 267 257 255 255 258 261 260 254 246 243 241 243 245 248 249 248 255 263 273 288 307 331 355 22 43 48 56 65 64 63 60 59 61
230 228 226 229 231 219 211 210 212 211 203 201 197 191 190 192 195 198 204 205 201 202 206 214 221 223 223 220 222 230 238 231 211 203 195 191 187 171 159 157 151 150 146 138 122 111 113 124 135 215 263 272 273 266 266 265 262 261 260 245 231 234 233 233 234 237 241 242 245 251 259 268 279 291 301 312 334 3 30 55 66 70 66 63 62
228 228 225 228 235 224 211 206 205 206 204 203 200 196 195 196 198 199 203 207 209 215 220 225 229 230 231 230 230 236 243 242 232 221 218 221 208 181 172 171 168 171 157 145 131 117 120 121 127 164 238 260 266 271 278 281 277 269 266 246 224 229 230 228 230 231 234 238 241 244 252 260 269 279 287 293 296 305 325 3 45 67 72 71 68
224 227 227 229 237 223 207 199 200 206 206 204 204 202 201 202 205 204 204 208 213 220 225 227 230 232 234 235 237 241 247 249 247 240 235 239 233 202 189 181 179 192 184 178 181 165 179 176 168 206 206 232 254 267 277 281 286 283 276 259 231 226 227 225 226 227 229 232 237 241 249 256 264 272 280 285 287 291 295 301 329 24 64 74 77
221 224 230 234 231 214 204 198 198 210 210 209 210 207 210 213 216 219 220 219 221 222 225 230 233 237 239 237 237 241 244 246 247 247 244 241 238 229 216 202 201 205 205 207 208 210 221 221 246 254 228 241 264 271 274 273 277 280 279 271 252 235 228 224 223 226 229 233 237 241 248 254 260 268 274 279 281 283 284 287 292 300 19 70 82
223 224 232 237 229 215 211 205 204 214 214 213 214 213 218 221 224 230 231 231 232 228 226 233 240 244 248 246 245 247 249 250 248 243 241 240 237 236 236 231 230 231 230 233 233 233 231 221 233 248 246 254 266 272 276 272 269 272 274 269 262 249 232 224 222 223 228 233 238 242 247 251 256 260 265 270 275 277 276 277 277 273 272 66 93
225 225 229 229 224 216 218 219 220 223 220 219 218 217 220 225 232 237 237 236 237 237 233 239 247 250 251 251 249 248 251 253 251 242 232 232 236 237 239 239 240 243 244 247 251 254 247 232 226 232 245 254 255 258 266 272 271 273 276 270 256 243 228 221 222 222 225 227 231 239 243 244 249 255 261 266 269 270 269 267 263 258 253 243 202
222 221 225 225 222 216 219 228 231 228 228 235 230 225 226 231 237 240 241 239 237 238 238 245 250 246 245 249 252 252 255 256 254 255 243 232 238 242 244 246 245 247 249 250 253 257 254 245 232 224 232 242 243 244 251 262 266 263 268 276 272 249 231 227 233 235 234 228 224 230 237 242 250 257 262 264 265 264 262 257 252 247 243 237 227
210 214 221 224 226 224 222 228 235 233 235 242 237 232 233 236 239 239 239 239 238 238 242 251 248 241 244 249 252 251 255 262 267 280 291 266 253 253 255 257 256 255 255 255 255 256 253 248 242 233 229 231 232 235 242 253 259 251 251 264 273 265 254 265 280 274 269 262 247 238 242 247 255 262 263 259 257 256 253 249 244 240 236 233 231
192 200 207 215 227 235 234 233 237 235 232 234 234 236 238 241 242 240 237 234 236 240 244 245 237 236 241 239 239 240 245 258 270 283 293 290 276 269 266 264 263 261 259 258 257 259 256 250 247 240 232 230 229 230 234 237 240 242 245 254 260 256 252 264 289 297 290 287 283 273 262 257 253 253 250 243 241 243 244 242 238 235 232 228 229
184 188 195 201 213 223 227 231 234 233 232 233 235 240 242 243 242 240 239 235 235 238 238 234 227 227 229 225 230 240 251 260 267 276 277 282 288 282 276 270 265 262 260 260 259 262 261 255 254 251 245 244 239 234 236 233 228 231 237 247 255 254 248 250 260 275 285 287 285 279 269 262 252 239 229 219 217 223 227 229 228 229 230 227 225
187 192 196 198 201 211 223 234 241 241 240 238 237 241 241 243 245 244 244 240 236 236 233 230 227 223 222 229 241 251 261 264 275 296 286 302 326 330 315 293 275 263 259 264 267 268 266 262 262 262 261 261 255 246 246 246 243 240 236 238 247 253 252 250 248 250 258 264 269 269 263 258 248 229 215 209 208 210 212 220 222 226 231 227 225
210 213 215 215 218 223 235 241 241 234 227 229 234 238 239 243 249 252 252 249 245 242 237 229 226 223 218 224 244 260 266 268 322 328 303 309 329 349 349 329 297 269 261 267 275 279 282 281 279 277 275 271 264 257 254 254 254 251 246 242 244 249 254 257 254 252 250 249 250 252 250 248 242 229 221 218 218 217 215 220 235 244 242 237 231
228 229 225 225 231 230 238 241 231 222 213 217 224 226 231 236 240 244 248 251 247 243 240 226 221 225 221 217 247 277 277 294 329 326 313 313 317 332 345 351 344 288 265 267 275 285 290 295 299 302 300 287 275 263 256 257 254 250 250 247 243 242 243 248 254 258 257 253 248 244 240 237 232 229 233 239 237 234 236 239 245 250 251 251 250
205 196 189 195 208 206 210 227 220 216 208 199 197 198 210 219 222 226 233 240 237 241 247 236 230 234 230 229 270 293 316 316 316 314 313 311 310 316 317 329 341 306 277 275 281 293 297 301 305 308 304 290 280 270 263 264 262 259 257 253 248 244 243 241 243 249 255 259 257 249 242 238 236 233 234 243 250 252 253 253 256 258 260 259 262
189 175 167 170 180 181 176 174 186 197 188 169 163 171 185 189 194 205 218 227 228 240 256 250 245 250 248 250 258 267 289 299 304 308 310 311 319 324 318 317 319 313 305 294 288 294 301 306 306 301 296 286 281 281 281 278 278 277 270 262 258 257 254 248 244 244 247 254 259 258 253 244 240 239 236 238 247 254 255 257 261 261 264 267 269
206 191 169 163 168 164 138 122 134 147 146 132 118 105 102 116 132 148 174 212 224 232 244 235 232 242 244 240 248 268 291 299 307 311 320 345 2 0 351 343 334 323 315 308 304 303 300 301 300 295 292 287 283 288 290 284 283 285 279 270 263 263 262 256 253 253 249 248 250 255 260 259 252 247 243 240 240 245 251 258 268 268 264 265 268
195 185 170 165 163 152 117 116 124 127 125 111 76 67 85 91 85 75 71 70 74 253 267 225 209 223 221 222 239 280 320 331 333 333 359 11 2 352 353 7 20 359 331 319 309 300 295 293 292 290 289 289 283 284 291 290 287 280 273 271 265 267 272 269 266 267 261 255 253 255 259 263 263 258 253 250 246 246 250 255 265 269 262 258 265
159 160 160 165 161 121 97 118 127 123 119 95 49 64 87 90 78 66 66 71 68 57 49 73 101 99 110 122 94 12 0 356 358 359 356 349 345 346 352 14 35 36 21 8 347 314 298 287 283 287 290 287 274 275 287 293 290 277 270 279 283 281 286 284 281 281 274 272 278 281 272 263 262 261 256 254 255 258 263 264 265 268 267 265 270
151 153 154 156 144 104 86 101 116 112 104 95 90 97 96 96 91 76 75 77 76 73 74 88 97 94 97 96 34 352 337 336 337 328 327 332 340 349 357 16 38 48 52 54 56 51 31 0 14 26 339 285 268 274 281 279 276 276 277 289 296 292 294 292 287 287 283 284 295 296 286 266 260 261 260 260 265 267 269 272 272 275 276 274 273
154 151 148 139 124 110 101 103 107 107 106 105 110 117 119 131 142 135 119 102 99 101 100 102 104 95 72 20 329 334 330 330 320 312 320 332 343 351 356 14 46 79 87 81 78 68 59 56 56 55 50 26 311 300 304 293 282 282 285 294 295 290 303 305 292 283 284 285 285 284 289 282 264 262 263 263 268 270 269 272 275 276 274 273 274
145 141 136 128 118 113 108 108 110 109 108 106 105 104 105 108 112 114 110 104 110 117 122 122 121 110 82 67 40 12 349 340 332 330 341 349 356 5 7 17 47 107 132 122 97 68 57 57 55 51 43 32 11 349 342 335 321 302 289 291 292 284 296 307 297 289 290 290 286 285 297 304 289 277 274 267 270 275 271 267 269 273 273 273 274
134 133 130 128 125 122 117 114 114 115 114 111 107 104 103 102 102 107 110 109 112 115 120 124 117 100 80 61 42 28 15 5 358 0 8 7 12 25 28 35 58 95 137 141 110 59 38 36 37 28 20 17 6 355 349 349 350 322 296 292 292 287 287 287 281 285 292 295 301 302 300 304 311 313 304 296 295 296 286 276 274 280 283 284 281
129 129 128 128 129 125 122 120 117 119 119 114 111 107 102 100 99 102 106 104 104 109 113 109 101 91 80 68 54 48 42 33 27 21 20 18 21 27 34 48 65 75 90 98 68 0 354 354 352 347 349 353 352 349 346 341 337 324 311 309 302 287 284 285 286 291 291 290 294 297 297 297 301 308 308 306 309 314 308 296 294 293 289 291 290
127 125 124 125 125 123 122 122 120 120 120 116 112 106 100 97 95 94 96 94 92 96 96 94 92 89 82 73 60 54 52 47 41 34 29 27 28 32 38 44 50 55 59 50 35 19 4 355 349 349 348 346 343 340 334 328 322 315 312 311 298 282 281 284 286 288 288 288 288 287 289 291 292 294 295 294 295 298 298 293 291 289 285 285 286
132 126 123 121 120 119 118 119 120 121 120 117 113 108 104 99 94 93 92 92 93 93 90 86 84 83 80 72 64 61 59 53 45 39 36 31 29 33 36 36 37 38 37 34 33 28 16 8 1 358 357 353 348 341 332 323 316 310 303 295 286 282 282 280 279 278 276 278 280 281 283 285 288 288 287 287 289 292 295 294 291 288 285 284 283
144 135 130 125 121 119 117 116 116 117 115 112 108 106 104 99 95 92 88 87 89 92 92 90 84 78 73 69 66 62 58 55 47 40 34 29 27 28 28 29 30 29 27 26 26 21 17 15 7 359 357 356 352 347 341 331 320 313 305 296 288 282 280 279 279 279 277 276 276 276 278 281 284 285 285 286 288 292 294 292 288 286 285 284 282
161 153 145 137 131 128 125 123 121 120 118 114 111 108 106 105 103 100 96 91 87 85 86 87 85 78 68 66 63 57 54 54 50 41 31 23 22 23 22 23 25 25 21 18 17 15 11 10 7 358 353 354 351 346 346 343 334 326 317 310 304 296 290 287 286 285 284 284 283 281 280 279 278 279 280 281 282 285 286 283 280 281 283 284 282
167 163 157 151 146 141 138 136 134 133 131 128 127 124 121 120 118 117 117 114 108 100 91 80 82 82 66 53 52 49 47 48 49 43 30 20 18 21 19 18 20 19 15 10 7 9 8 2 1 357 351 350 347 341 341 344 343 340 336 330 324 318 311 307 303 298 296 298 297 295 291 286 283 282 282 283 282 281 279 277 275 274 277 281 282
178 171 162 156 153 150 146 144 141 141 141 140 141 141 142 142 139 136 137 138 139 137 136 140 189 258 324 322 317 319 322 350 15 20 15 9 11 17 13 12 15 12 9 5 359 1 5 358 353 351 347 345 343 337 333 333 334 337 340 338 334 334 337 336 330 321 322 328 326 324 320 312 305 299 296 294 293 290 287 284 281 279 277 276 278
197 189 178 165 158 157 153 150 150 149 147 148 149 150 154 161 166 168 167 166 167 164 165 182 220 251 284 302 305 298 286 285 294 305 325 335 339 349 354 357 3 2 359 358 352 350 353 353 348 345 343 342 340 334 331 331 330 330 330 329 329 334 339 343 342 339 339 344 342 338 336 330 324 319 313 309 305 301 298 294 291 288 283 277 275
215 211 205 192 178 170 167 164 166 168 165 164 164 164 178 195 199 194 189 184 180 176 172 175 197 233 284 305 310 308 296 288 291 295 304 313 316 317 327 337 343 347 349 349 346 341 340 343 342 338 337 339 337 333 331 329 327 323 322 322 323 324 322 322 326 323 318 322 326 321 317 316 315 316 315 311 308 303 301 300 296 292 288 281 278
221 217 215 215 206 193 192 199 201 204 221 228 229 273 293 279 265 246 224 210 198 190 184 188 203 226 272 298 306 307 302 296 297 302 306 308 309 307 306 313 323 333 338 340 339 334 330 332 334 333 332 333 333 330 326 324 322 320 319 319 319 317 315 315 316 313 306 300 299 296 297 299 299 300 303 305 305 301 297 298 295 291 286 280 278
223 217 213 221 220 212 212 228 246 266 281 287 295 307 307 296 285 276 267 262 254 241 233 237 245 254 270 287 296 297 298 298 296 298 304 305 302 300 298 301 310 321 328 330 331 329 325 323 325 326 326 326 328 327 324 323 322 321 320 321 322 320 317 314 310 307 304 299 295 290 288 289 290 290 293 298 301 298 292 290 289 289 286 279 275
219 215 213 222 223 219 218 232 259 282 293 299 306 308 302 297 296 291 281 272 266 267 269 270 269 272 279 285 288 290 293 295 289 287 293 297 295 293 295 297 302 309 316 321 322 322 320 318 319 320 321 322 323 324 325 327 327 325 323 322 322 321 319 316 313 310 306 303 300 297 294 293 293 293 293 295 295 292 288 285 283 283 284 280 275
219 217 224 231 230 228 228 235 257 279 288 292 297 300 297 297 302 302 293 278 267 266 269 272 274 277 284 287 287 288 290 290 286 283 286 290 291 291 291 294 298 303 311 317 318 317 316 316 315 316 318 320 321 321 323 325 325 323 323 323 322 322 323 323 321 318 314 309 303 298 295 294 293 292 293 293 291 285 282 283 282 280 279 278 276
217 224 242 246 239 238 242 247 256 270 280 282 286 291 291 293 301 305 298 285 276 272 273 274 273 272 278 284 285 285 287 287 283 279 280 284 288 289 290 295 299 302 310 315 316 316 316 315 314 313 314 315 315 316 317 319 320 322 326 329 326 324 323 322 322 320 318 314 309 303 299 296 293 291 290 289 286 282 279 279 280 279 277 276 274
224 231 246 246 237 236 243 250 254 265 277 279 280 282 281 283 293 296 292 286 286 285 283 282 279 274 276 281 283 284 285 284 282 279 278 280 285 287 289 295 299 303 310 314 315 317 317 315 312 309 308 310 313 316 319 324 327 328 328 328 325 322 319 317 317 318 318 315 311 307 305 303 300 296 293 289 286 283 280 278 278 277 275 273 271
235 233 238 235 229 233 241 248 254 263 272 274 272 272 272 276 283 284 281 282 284 285 284 283 282 279 278 280 282 282 281 279 278 278 276 277 280 283 287 291 295 303 312 314 314 317 317 315 313 309 308 310 316 321 324 326 328 328 327 325 324 323 320 317 315 316 318 318 313 307 305 308 306 300 295 292 288 284 282 280 279 278 276 273 270
229 233 236 231 231 237 240 245 255 261 265 266 266 267 270 274 277 277 278 279 278 279 280 281 283 283 281 281 279 277 275 273 273 274 273 272 274 278 283 286 289 300 311 312 313 315 315 314 312 313 315 317 319 321 322 323 324 326 326 325 324 323 323 322 319 317 319 320 317 311 308 309 311 305 299 295 292 289 286 283 281 280 278 275 273
226 232 232 230 233 234 234 241 251 253 255 259 263 267 271 274 277 279 281 283 283 282 282 281 283 283 282 281 279 275 270 268 269 269 263 259 262 273 279 281 285 298 308 310 311 312 312 311 311 313 317 318 319 320 321 322 323 324 325 324 324 323 322 322 320 318 319 320 318 314 309 309 313 310 304 300 300 297 293 288 284 281 279 277 275
228 227 220 219 221 217 222 236 244 246 253 260 265 269 273 275 279 282 284 287 287 287 286 284 283 283 283 282 281 276 266 261 262 262 260 258 262 270 275 278 287 298 304 307 309 309 310 311 312 314 316 316 318 319 320 320 321 322 322 322 322 322 320 319 317 317 318 319 317 313 309 309 313 311 306 305 306 304 300 294 289 285 283 282 280
214 212 207 204 200 199 215 230 238 248 258 264 268 273 276 279 283 285 286 287 288 288 288 287 285 285 286 285 282 277 266 257 256 259 261 261 261 267 274 279 286 293 298 302 305 306 308 310 311 312 312 312 314 315 316 317 317 317 318 318 318 318 316 315 314 314 316 315 314 311 308 308 311 310 308 307 307 307 305 302 297 293 290 289 288
191 191 190 190 191 201 218 233 247 261 271 277 282 286 288 290 291 294 296 296 294 293 293 292 291 290 290 289 285 278 265 256 256 257 254 251 253 262 271 275 281 289 294 298 301 302 304 304 305 305 305 306 308 310 311 312 312 312 312 312 313 313 311 310 310 312 313 312 312 310 307 308 310 309 309 310 308 305 305 305 306 305 301 298 295
182 181 183 191 201 218 237 252 267 278 286 292 297 300 302 301 302 308 312 312 309 307 304 300 298 296 296 295 285 271 260 257 259 254 248 252 262 269 269 272 279 287 292 295 297 297 298 298 298 297 297 299 302 304 306 307 307 308 308 308 309 309 307 307 308 310 311 310 310 310 308 310 312 310 310 311 306 302 302 304 307 307 305 304 304
196 198 203 215 226 237 249 261 275 288 296 302 306 312 314 311 313 319 323 325 326 325 322 318 313 309 306 300 287 270 260 256 252 245 247 260 273 272 268 272 281 287 290 291 291 291 292 292 291 291 291 294 297 299 302 303 304 305 306 306 308 307 306 306 308 309 309 309 310 310 309 310 312 310 307 305 302 300 301 302 301 299 300 300 299
212 215 221 227 230 235 247 265 283 293 299 304 308 313 315 316 320 324 326 329 332 333 331 327 323 320 313 301 288 272 258 249 244 245 254 264 268 266 265 272 281 286 287 285 283 284 285 285 285 286 288 290 292 295 296 298 300 302 303 305 306 305 304 305 306 307 308 308 309 310 308 306 307 307 305 303 301 301 303 305 300 293 294 295 289
213 215 217 219 224 235 253 269 281 288 294 299 302 306 311 314 318 323 326 329 333 334 331 323 318 315 305 289 275 263 254 250 250 254 259 261 263 265 269 277 283 285 283 281 280 279 279 279 280 282 284 286 289 291 294 297 299 302 303 304 304 304 304 304 306 307 306 306 310 312 309 307 309 311 311 308 304 302 302 303 289 265 262 274 280